User: anonymous   Login
Location: Unspecified
(0.0000°N, 0.0000°E)
Time: 00:03:35
(UTC+00:00)
Language:

Aussat K2 - Orbit

View from above orbital plane
View from above orbital plane
View from above satellite
View from above satellite

Ground track
Ground track

The orbit data is extracted from the following two-line orbital elements,

1 16275U 85109C   16178.99701929 -.00000002  00000-0  00000+0 0  9995
2 16275  15.1094  12.3362 0005447 211.0812 120.3469  0.99932620101675
Epoch (UTC): 26 June 2016 23:55:42
Eccentricity: 0.0005447
inclination: 15.1094°
perigee height: 35858 km
apogee height: 35904 km
right ascension of ascending node: 12.3362°
argument of perigee: 211.0812°
revolutions per day: 0.99932620
mean anomaly at epoch: 120.3469°
orbit number at epoch: 10167

The dashed part of the orbit path shows where the satellite is in the earth's shadow,  

DLR